"Sample Date","Sample Time","Sensor Name","Sample Value","Units","Flow Rate","Sample Interval","Sample Volume","Laser Status","Number Channels","Micron Size 0","Counts/Channel 0","Micron Size 1","Counts/Channel 1","Micron Size 2","Counts/Channel 2","Micron Size 3","Counts/Channel 3","Micron Size 4","Counts/Channel 4","Micron Size 5","Counts/Channel 5","Micron Size 6","Counts/Channel 6","Micron Size 7","Counts/Channel 7","Micron Size 8","Counts/Channel 8","Micron Size 9","Counts/Channel 9","Micron Size 10","Counts/Channel 10","Micron Size 11","Counts/Channel 11","Micron Size 12","Counts/Channel 12","Micron Size 13","Counts/Channel 13","Micron Size 14","Counts/Channel 14","Micron Size 15","Counts/Channel 15","Micron Size 16","Counts/Channel 16","Micron Size 17","Counts/Channel 17","Micron Size 18","Counts/Channel 18","Micron Size 19","Counts/Channel 19","Micron Size 20","Counts/Channel 20","Micron Size 21","Counts/Channel 21","Micron Size 22","Counts/Channel 22","Micron Size 23","Counts/Channel 23","Micron Size 24","Counts/Channel 24","Micron Size 25","Counts/Channel 25","Micron Size 26","Counts/Channel 26","Micron Size 27","Counts/Channel 27","Micron Size 28","Counts/Channel 28","Micron Size 29","Counts/Channel 29","Micron Size 30","Counts/Channel 30","Micron Size 31","Counts/Channel 31"
"07/09/06","17:00:03","AMMA06",26654.000,"cc",28284.598,6.00,2828.460,1,6,0.100,16672.000,0.200,8887.000,0.300,916.000,0.500,102.000,1.000,77.000,5.000,0
"07/09/06","17:00:09","AMMA06",26580.000,"cc",28367.338,6.00,2836.734,1,6,0.100,16628.000,0.200,8859.000,0.300,918.000,0.500,113.000,1.000,62.000,5.000,0
"07/09/06","17:00:15","AMMA06",26600.000,"cc",28363.711,6.00,2836.371,1,6,0.100,16548.000,0.200,8934.000,0.300,923.000,0.500,128.000,1.000,67.000,5.000,0
"07/09/06","17:00:21","AMMA06",26769.000,"cc",28237.252,6.00,2823.725,1,6,0.100,16620.000,0.200,9072.000,0.300,899.000,0.500,117.000,1.000,61.000,5.000,0
"07/09/06","17:00:27","AMMA06",26616.000,"cc",28294.662,6.00,2829.466,1,6,0.100,16409.000,0.200,9085.000,0.300,949.000,0.500,107.000,1.000,66.000,5.000,0
"07/09/06","17:00:33","AMMA06",26773.000,"cc",28317.109,6.00,2831.711,1,6,0.100,16558.000,0.200,9099.000,0.300,943.000,0.500,120.000,1.000,53.000,5.000,0
"07/09/06","17:00:39","AMMA06",26708.000,"cc",28335.365,6.00,2833.537,1,6,0.100,16489.000,0.200,9114.000,0.300,923.000,0.500,112.000,1.000,70.000,5.000,0
"07/09/06","17:00:45","AMMA06",26742.000,"cc",28318.598,6.00,2831.860,1,6,0.100,16738.000,0.200,8932.000,0.300,897.000,0.500,115.000,1.000,60.000,5.000,0
"07/09/06","17:00:51","AMMA06",26633.000,"cc",28317.154,6.00,2831.716,1,6,0.100,16400.000,0.200,9118.000,0.300,963.000,0.500,87.000,1.000,65.000,5.000,0
"07/09/06","17:00:57","AMMA06",26666.000,"cc",28350.162,6.00,2835.016,1,6,0.100,16416.000,0.200,9113.000,0.300,951.000,0.500,122.000,1.000,64.000,5.000,0
"07/09/06","17:01:03","AMMA06",26819.000,"cc",28310.887,6.00,2831.089,1,6,0.100,16511.000,0.200,9140.000,0.300,977.000,0.500,121.000,1.000,70.000,5.000,0
"07/09/06","17:01:09","AMMA06",26640.000,"cc",28342.348,6.00,2834.235,1,6,0.100,16444.000,0.200,9100.000,0.300,907.000,0.500,119.000,1.000,70.000,5.000,0
"07/09/06","17:01:15","AMMA06",26540.000,"cc",28316.863,6.00,2831.687,1,6,0.100,16393.000,0.200,9008.000,0.300,947.000,0.500,127.000,1.000,65.000,5.000,0
"07/09/06","17:01:21","AMMA06",26359.000,"cc",28284.887,6.00,2828.489,1,6,0.100,16338.000,0.200,8918.000,0.300,930.000,0.500,117.000,1.000,56.000,5.000,0
"07/09/06","17:01:27","AMMA06",26565.000,"cc",28289.301,6.00,2828.930,1,6,0.100,16452.000,0.200,9061.000,0.300,888.000,0.500,112.000,1.000,52.000,5.000,0
"07/09/06","17:01:33","AMMA06",27228.000,"cc",28331.479,6.00,2833.148,1,6,0.100,16685.000,0.200,9402.000,0.300,950.000,0.500,116.000,1.000,75.000,5.000,0
"07/09/06","17:01:39","AMMA06",27180.000,"cc",28301.395,6.00,2830.140,1,6,0.100,16710.000,0.200,9292.000,0.300,986.000,0.500,120.000,1.000,72.000,5.000,0
"07/09/06","17:01:45","AMMA06",27197.000,"cc",28277.574,6.00,2827.758,1,6,0.100,16789.000,0.200,9227.000,0.300,1005.000,0.500,112.000,1.000,64.000,5.000,0
"07/09/06","17:01:51","AMMA06",27379.000,"cc",28365.082,6.00,2836.508,1,6,0.100,16810.000,0.200,9470.000,0.300,904.000,0.500,130.000,1.000,65.000,5.000,0
"07/09/06","17:01:57","AMMA06",27029.000,"cc",28302.070,6.00,2830.207,1,6,0.100,16497.000,0.200,9390.000,0.300,966.000,0.500,107.000,1.000,69.000,5.000,0
"07/09/06","17:02:03","AMMA06",27470.000,"cc",28303.607,6.00,2830.361,1,6,0.100,16944.000,0.200,9379.000,0.300,946.000,0.500,127.000,1.000,74.000,5.000,0
"07/09/06","17:02:09","AMMA06",27633.000,"cc",28372.607,6.00,2837.261,1,6,0.100,16985.000,0.200,9521.000,0.300,941.000,0.500,124.000,1.000,62.000,5.000,0
"07/09/06","17:02:15","AMMA06",27261.000,"cc",28344.434,6.00,2834.444,1,6,0.100,16423.000,0.200,9652.000,0.300,1026.000,0.500,99.000,1.000,61.000,5.000,0
"07/09/06","17:02:21","AMMA06",27072.000,"cc",28283.668,6.00,2828.367,1,6,0.100,16496.000,0.200,9458.000,0.300,936.000,0.500,115.000,1.000,67.000,5.000,0
"07/09/06","17:02:27","AMMA06",27384.000,"cc",28307.182,6.00,2830.718,1,6,0.100,16707.000,0.200,9532.000,0.300,974.000,0.500,111.000,1.000,60.000,5.000,0
"07/09/06","17:02:33","AMMA06",27357.000,"cc",28310.037,6.00,2831.004,1,6,0.100,16408.000,0.200,9691.000,0.300,1076.000,0.500,105.000,1.000,77.000,5.000,0
"07/09/06","17:02:39","AMMA06",27129.000,"cc",28303.022,6.00,2830.302,1,6,0.100,16439.000,0.200,9496.000,0.300,1027.000,0.500,92.000,1.000,75.000,5.000,0
"07/09/06","17:02:45","AMMA06",27516.000,"cc",28358.145,6.00,2835.815,1,6,0.100,16780.000,0.200,9592.000,0.300,947.000,0.500,125.000,1.000,72.000,5.000,0
"07/09/06","17:02:51","AMMA06",27202.000,"cc",28371.670,6.00,2837.167,1,6,0.100,16519.000,0.200,9525.000,0.300,964.000,0.500,128.000,1.000,66.000,5.000,0
"07/09/06","17:02:57","AMMA06",27230.000,"cc",28307.813,6.00,2830.782,1,6,0.100,16421.000,0.200,9655.000,0.300,983.000,0.500,111.000,1.000,60.000,5.000,0
"07/09/06","17:03:03","AMMA06",27049.000,"cc",28309.373,6.00,2830.938,1,6,0.100,16509.000,0.200,9422.000,0.300,947.000,0.500,101.000,1.000,70.000,5.000,0
"07/09/06","17:03:09","AMMA06",27613.000,"cc",28290.180,6.00,2829.018,1,6,0.100,16752.000,0.200,9652.000,0.300,1021.000,0.500,128.000,1.000,60.000,5.000,0
"07/09/06","17:03:15","AMMA06",28011.000,"cc",28312.818,6.00,2831.282,1,6,0.100,16937.000,0.200,9949.000,0.300,940.000,0.500,110.000,1.000,75.000,5.000,0
"07/09/06","17:03:21","AMMA06",27677.000,"cc",28334.070,6.00,2833.407,1,6,0.100,16647.000,0.200,9740.000,0.300,1105.000,0.500,119.000,1.000,66.000,5.000,0
"07/09/06","17:03:27","AMMA06",27290.000,"cc",28275.863,6.00,2827.586,1,6,0.100,16582.000,0.200,9530.000,0.300,1002.000,0.500,120.000,1.000,56.000,5.000,0
"07/09/06","17:03:33","AMMA06",27398.000,"cc",28283.559,6.00,2828.356,1,6,0.100,16691.000,0.200,9535.000,0.300,969.000,0.500,137.000,1.000,66.000,5.000,0
"07/09/06","17:03:39","AMMA06",27475.000,"cc",28308.094,6.00,2830.810,1,6,0.100,16613.000,0.200,9697.000,0.300,1000.000,0.500,109.000,1.000,56.000,5.000,0
"07/09/06","17:03:45","AMMA06",27468.000,"cc",28337.373,6.00,2833.738,1,6,0.100,16676.000,0.200,9706.000,0.300,941.000,0.500,96.000,1.000,49.000,5.000,0
"07/09/06","17:03:51","AMMA06",27617.000,"cc",28356.885,6.00,2835.689,1,6,0.100,16831.000,0.200,9659.000,0.300,941.000,0.500,121.000,1.000,65.000,5.000,0
"07/09/06","17:03:57","AMMA06",27879.000,"cc",28275.072,6.00,2827.507,1,6,0.100,16915.000,0.200,9822.000,0.300,956.000,0.500,120.000,1.000,66.000,5.000,0
"07/09/06","17:04:03","AMMA06",27605.000,"cc",28272.205,6.00,2827.221,1,6,0.100,16704.000,0.200,9716.000,0.300,982.000,0.500,126.000,1.000,77.000,5.000,0
"07/09/06","17:04:09","AMMA06",27890.000,"cc",28341.684,6.00,2834.169,1,6,0.100,16793.000,0.200,9873.000,0.300,1032.000,0.500,120.000,1.000,72.000,5.000,0
"07/09/06","17:04:15","AMMA06",27682.000,"cc",28352.797,6.00,2835.280,1,6,0.100,16712.000,0.200,9779.000,0.300,1025.000,0.500,105.000,1.000,61.000,5.000,0
"07/09/06","17:04:21","AMMA06",27581.000,"cc",28295.697,6.00,2829.570,1,6,0.100,16796.000,0.200,9603.000,0.300,1011.000,0.500,114.000,1.000,57.000,5.000,0
"07/09/06","17:04:27","AMMA06",27823.000,"cc",28307.438,6.00,2830.744,1,6,0.100,16874.000,0.200,9763.000,0.300,988.000,0.500,140.000,1.000,58.000,5.000,0
"07/09/06","17:04:33","AMMA06",27405.000,"cc",28321.648,6.00,2832.165,1,6,0.100,16737.000,0.200,9501.000,0.300,989.000,0.500,109.000,1.000,69.000,5.000,0
"07/09/06","17:04:39","AMMA06",27598.000,"cc",28288.133,6.00,2828.814,1,6,0.100,16728.000,0.200,9720.000,0.300,969.000,0.500,121.000,1.000,60.000,5.000,0
"07/09/06","17:04:45","AMMA06",27741.000,"cc",28325.449,6.00,2832.545,1,6,0.100,16742.000,0.200,9794.000,0.300,996.000,0.500,142.000,1.000,67.000,5.000,0
"07/09/06","17:04:51","AMMA06",27611.000,"cc",28320.865,6.00,2832.087,1,6,0.100,16684.000,0.200,9726.000,0.300,986.000,0.500,144.000,1.000,71.000,5.000,0
"07/09/06","17:04:57","AMMA06",27917.000,"cc",28338.359,6.00,2833.836,1,6,0.100,16980.000,0.200,9766.000,0.300,987.000,0.500,115.000,1.000,69.000,5.000,0
"07/09/06","17:05:03","AMMA06",27511.000,"cc",28317.193,6.00,2831.720,1,6,0.100,16857.000,0.200,9539.000,0.300,928.000,0.500,117.000,1.000,70.000,5.000,0
"07/09/06","17:05:09","AMMA06",27898.000,"cc",28313.813,6.00,2831.381,1,6,0.100,16992.000,0.200,9759.000,0.300,952.000,0.500,134.000,1.000,61.000,5.000,0
"07/09/06","17:05:15","AMMA06",27852.000,"cc",28321.865,6.00,2832.187,1,6,0.100,16974.000,0.200,9676.000,0.300,997.000,0.500,139.000,1.000,66.000,5.000,0
"07/09/06","17:05:21","AMMA06",27590.000,"cc",28288.502,6.00,2828.850,1,6,0.100,17029.000,0.200,9444.000,0.300,948.000,0.500,111.000,1.000,58.000,5.000,0
"07/09/06","17:05:27","AMMA06",27573.000,"cc",28230.736,6.00,2823.074,1,6,0.100,16803.000,0.200,9597.000,0.300,966.000,0.500,140.000,1.000,67.000,5.000,0
"07/09/06","17:05:33","AMMA06",27936.000,"cc",28318.731,6.00,2831.873,1,6,0.100,16802.000,0.200,9926.000,0.300,1009.000,0.500,137.000,1.000,62.000,5.000,0
"07/09/06","17:05:39","AMMA06",27952.000,"cc",28339.408,6.00,2833.941,1,6,0.100,17017.000,0.200,9724.000,0.300,1003.000,0.500,133.000,1.000,75.000,5.000,0
"07/09/06","17:05:45","AMMA06",27388.000,"cc",28358.631,6.00,2835.863,1,6,0.100,16557.000,0.200,9727.000,0.300,923.000,0.500,121.000,1.000,60.000,5.000,0
"07/09/06","17:05:51","AMMA06",27535.000,"cc",28304.430,6.00,2830.443,1,6,0.100,16772.000,0.200,9568.000,0.300,997.000,0.500,128.000,1.000,70.000,5.000,0
"07/09/06","17:05:57","AMMA06",27258.000,"cc",28307.684,6.00,2830.769,1,6,0.100,16653.000,0.200,9509.000,0.300,905.000,0.500,127.000,1.000,64.000,5.000,0
"07/09/06","17:06:03","AMMA06",27452.000,"cc",28320.729,6.00,2832.073,1,6,0.100,16732.000,0.200,9620.000,0.300,910.000,0.500,122.000,1.000,68.000,5.000,0
"07/09/06","17:06:09","AMMA06",27327.000,"cc",28365.111,6.00,2836.511,1,6,0.100,16643.000,0.200,9547.000,0.300,934.000,0.500,134.000,1.000,69.000,5.000,0
"07/09/06","17:06:15","AMMA06",27618.000,"cc",28262.410,6.00,2826.241,1,6,0.100,16771.000,0.200,9677.000,0.300,977.000,0.500,129.000,1.000,64.000,5.000,0
"07/09/06","17:06:21","AMMA06",27365.000,"cc",28356.508,6.00,2835.651,1,6,0.100,16627.000,0.200,9570.000,0.300,971.000,0.500,130.000,1.000,67.000,5.000,0
"07/09/06","17:06:27","AMMA06",27186.000,"cc",28316.606,6.00,2831.661,1,6,0.100,16638.000,0.200,9516.000,0.300,876.000,0.500,107.000,1.000,49.000,5.000,0
"07/09/06","17:06:33","AMMA06",27357.000,"cc",28278.740,6.00,2827.874,1,6,0.100,16873.000,0.200,9362.000,0.300,937.000,0.500,116.000,1.000,69.000,5.000,0
"07/09/06","17:06:39","AMMA06",27628.000,"cc",28371.598,6.00,2837.160,1,6,0.100,16917.000,0.200,9583.000,0.300,953.000,0.500,115.000,1.000,60.000,5.000,0
"07/09/06","17:06:45","AMMA06",27564.000,"cc",28335.723,6.00,2833.573,1,6,0.100,16791.000,0.200,9654.000,0.300,942.000,0.500,121.000,1.000,56.000,5.000,0
"07/09/06","17:06:51","AMMA06",27368.000,"cc",28285.033,6.00,2828.503,1,6,0.100,16687.000,0.200,9528.000,0.300,953.000,0.500,124.000,1.000,76.000,5.000,0
"07/09/06","17:06:57","AMMA06",27640.000,"cc",28281.930,6.00,2828.193,1,6,0.100,16812.000,0.200,9678.000,0.300,941.000,0.500,133.000,1.000,76.000,5.000,0
"07/09/06","17:07:03","AMMA06",27461.000,"cc",28404.459,6.00,2840.446,1,6,0.100,16744.000,0.200,9566.000,0.300,976.000,0.500,115.000,1.000,60.000,5.000,0
"07/09/06","17:07:09","AMMA06",27507.000,"cc",28311.006,6.00,2831.101,1,6,0.100,16860.000,0.200,9523.000,0.300,943.000,0.500,120.000,1.000,61.000,5.000,0
"07/09/06","17:07:15","AMMA06",27455.000,"cc",28285.428,6.00,2828.543,1,6,0.100,16729.000,0.200,9623.000,0.300,920.000,0.500,116.000,1.000,67.000,5.000,0
"07/09/06","17:07:21","AMMA06",27574.000,"cc",28264.408,6.00,2826.441,1,6,0.100,16936.000,0.200,9531.000,0.300,914.000,0.500,136.000,1.000,57.000,5.000,0
"07/09/06","17:07:27","AMMA06",27781.000,"cc",28330.652,6.00,2833.065,1,6,0.100,16912.000,0.200,9706.000,0.300,972.000,0.500,128.000,1.000,63.000,5.000,0
"07/09/06","17:07:33","AMMA06",27688.000,"cc",28306.250,6.00,2830.625,1,6,0.100,16885.000,0.200,9599.000,0.300,982.000,0.500,125.000,1.000,97.000,5.000,0
"07/09/06","17:07:39","AMMA06",27598.000,"cc",28320.496,6.00,2832.050,1,6,0.100,16784.000,0.200,9633.000,0.300,962.000,0.500,140.000,1.000,79.000,5.000,0
"07/09/06","17:07:45","AMMA06",27768.000,"cc",28356.416,6.00,2835.642,1,6,0.100,16930.000,0.200,9725.000,0.300,912.000,0.500,126.000,1.000,75.000,5.000,0
"07/09/06","17:07:51","AMMA06",27605.000,"cc",28303.041,6.00,2830.304,1,6,0.100,16728.000,0.200,9726.000,0.300,984.000,0.500,110.000,1.000,57.000,5.000,0
"07/09/06","17:07:57","AMMA06",27671.000,"cc",28331.645,6.00,2833.165,1,6,0.100,16732.000,0.200,9798.000,0.300,960.000,0.500,112.000,1.000,69.000,5.000,0
"07/09/06","17:08:03","AMMA06",27770.000,"cc",28250.791,6.00,2825.079,1,6,0.100,16759.000,0.200,9846.000,0.300,958.000,0.500,126.000,1.000,81.000,5.000,0
"07/09/06","17:08:09","AMMA06",27868.000,"cc",28322.508,6.00,2832.251,1,6,0.100,16899.000,0.200,9810.000,0.300,967.000,0.500,109.000,1.000,83.000,5.000,0
"07/09/06","17:08:15","AMMA06",27920.000,"cc",28350.643,6.00,2835.065,1,6,0.100,16975.000,0.200,9790.000,0.300,965.000,0.500,121.000,1.000,69.000,5.000,0
"07/09/06","17:08:21","AMMA06",27595.000,"cc",28349.682,6.00,2834.968,1,6,0.100,16738.000,0.200,9679.000,0.300,995.000,0.500,116.000,1.000,67.000,5.000,0
"07/09/06","17:08:27","AMMA06",27612.000,"cc",28292.801,6.00,2829.280,1,6,0.100,16664.000,0.200,9791.000,0.300,968.000,0.500,121.000,1.000,68.000,5.000,0
"07/09/06","17:08:33","AMMA06",27748.000,"cc",28311.777,6.00,2831.178,1,6,0.100,16858.000,0.200,9728.000,0.300,985.000,0.500,118.000,1.000,59.000,5.000,0
"07/09/06","17:08:39","AMMA06",27884.000,"cc",28316.729,6.00,2831.673,1,6,0.100,16880.000,0.200,9832.000,0.300,967.000,0.500,127.000,1.000,78.000,5.000,0
"07/09/06","17:08:45","AMMA06",27898.000,"cc",28297.266,6.00,2829.727,1,6,0.100,16677.000,0.200,10059.000,0.300,947.000,0.500,131.000,1.000,84.000,5.000,0
"07/09/06","17:08:51","AMMA06",28022.000,"cc",28341.563,6.00,2834.157,1,6,0.100,16958.000,0.200,9829.000,0.300,1041.000,0.500,133.000,1.000,61.000,5.000,0
"07/09/06","17:08:57","AMMA06",27803.000,"cc",28311.451,6.00,2831.145,1,6,0.100,16789.000,0.200,9823.000,0.300,1009.000,0.500,105.000,1.000,77.000,5.000,0
"07/09/06","17:09:03","AMMA06",27916.000,"cc",28308.731,6.00,2830.873,1,6,0.100,16925.000,0.200,9832.000,0.300,978.000,0.500,119.000,1.000,62.000,5.000,0
"07/09/06","17:09:09","AMMA06",27831.000,"cc",28280.096,6.00,2828.010,1,6,0.100,16830.000,0.200,9822.000,0.300,976.000,0.500,130.000,1.000,73.000,5.000,0
"07/09/06","17:09:15","AMMA06",27760.000,"cc",28337.514,6.00,2833.752,1,6,0.100,16790.000,0.200,9783.000,0.300,1002.000,0.500,136.000,1.000,49.000,5.000,0
"07/09/06","17:09:21","AMMA06",27878.000,"cc",28330.563,6.00,2833.056,1,6,0.100,16857.000,0.200,9796.000,0.300,1039.000,0.500,117.000,1.000,69.000,5.000,0
"07/09/06","17:09:27","AMMA06",27757.000,"cc",28345.361,6.00,2834.536,1,6,0.100,16728.000,0.200,9895.000,0.300,927.000,0.500,127.000,1.000,80.000,5.000,0
"07/09/06","17:09:33","AMMA06",27999.000,"cc",28286.863,6.00,2828.687,1,6,0.100,17016.000,0.200,9844.000,0.300,957.000,0.500,115.000,1.000,67.000,5.000,0
"07/09/06","17:09:39","AMMA06",27876.000,"cc",28315.984,6.00,2831.599,1,6,0.100,16637.000,0.200,9971.000,0.300,1062.000,0.500,123.000,1.000,83.000,5.000,0
"07/09/06","17:09:45","AMMA06",27911.000,"cc",28323.565,6.00,2832.357,1,6,0.100,16876.000,0.200,9794.000,0.300,1031.000,0.500,139.000,1.000,71.000,5.000,0
"07/09/06","17:09:51","AMMA06",27900.000,"cc",28316.463,6.00,2831.647,1,6,0.100,16848.000,0.200,9845.000,0.300,1011.000,0.500,124.000,1.000,72.000,5.000,0
"07/09/06","17:09:57","AMMA06",28331.000,"cc",28331.609,6.00,2833.161,1,6,0.100,16888.000,0.200,10170.000,0.300,1063.000,0.500,144.000,1.000,66.000,5.000,0
"07/09/06","17:10:03","AMMA06",27870.000,"cc",28318.647,6.00,2831.865,1,6,0.100,16673.000,0.200,9961.000,0.300,1034.000,0.500,130.000,1.000,72.000,5.000,0
"07/09/06","17:10:09","AMMA06",28114.000,"cc",28307.022,6.00,2830.702,1,6,0.100,16867.000,0.200,10038.000,0.300,998.000,0.500,140.000,1.000,71.000,5.000,0
"07/09/06","17:10:15","AMMA06",28287.000,"cc",28298.326,6.00,2829.833,1,6,0.100,16987.000,0.200,10113.000,0.300,996.000,0.500,131.000,1.000,60.000,5.000,0
"07/09/06","17:10:21","AMMA06",28369.000,"cc",28351.256,6.00,2835.126,1,6,0.100,16994.000,0.200,10081.000,0.300,1085.000,0.500,137.000,1.000,72.000,5.000,0
"07/09/06","17:10:27","AMMA06",28130.000,"cc",28272.807,6.00,2827.281,1,6,0.100,16808.000,0.200,10130.000,0.300,1008.000,0.500,120.000,1.000,64.000,5.000,0
"07/09/06","17:10:33","AMMA06",27937.000,"cc",28313.428,6.00,2831.343,1,6,0.100,16649.000,0.200,10093.000,0.300,1023.000,0.500,120.000,1.000,52.000,5.000,0
"07/09/06","17:10:39","AMMA06",28083.000,"cc",28318.203,6.00,2831.821,1,6,0.100,17006.000,0.200,9883.000,0.300,1009.000,0.500,120.000,1.000,65.000,5.000,0
"07/09/06","17:10:45","AMMA06",27981.000,"cc",28358.621,6.00,2835.862,1,6,0.100,16640.000,0.200,10145.000,0.300,999.000,0.500,132.000,1.000,65.000,5.000,0
"07/09/06","17:10:51","AMMA06",27970.000,"cc",28322.158,6.00,2832.216,1,6,0.100,16756.000,0.200,9991.000,0.300,1020.000,0.500,128.000,1.000,75.000,5.000,0
"07/09/06","17:10:57","AMMA06",28169.000,"cc",28296.557,6.00,2829.656,1,6,0.100,16809.000,0.200,10115.000,0.300,1065.000,0.500,130.000,1.000,50.000,5.000,0
"07/09/06","17:11:03","AMMA06",28094.000,"cc",28301.092,6.00,2830.109,1,6,0.100,16879.000,0.200,10023.000,0.300,999.000,0.500,127.000,1.000,66.000,5.000,0
"07/09/06","17:11:09","AMMA06",28051.000,"cc",28324.262,6.00,2832.426,1,6,0.100,16761.000,0.200,10050.000,0.300,1046.000,0.500,125.000,1.000,69.000,5.000,0
"07/09/06","17:11:15","AMMA06",28009.000,"cc",28356.070,6.00,2835.607,1,6,0.100,16840.000,0.200,9967.000,0.300,1027.000,0.500,107.000,1.000,68.000,5.000,0
"07/09/06","17:11:21","AMMA06",27641.000,"cc",28288.777,6.00,2828.878,1,6,0.100,16566.000,0.200,9858.000,0.300,1029.000,0.500,120.000,1.000,68.000,5.000,0
"07/09/06","17:11:27","AMMA06",27937.000,"cc",28335.641,6.00,2833.564,1,6,0.100,16612.000,0.200,10107.000,0.300,1042.000,0.500,124.000,1.000,52.000,5.000,0
"07/09/06","17:11:33","AMMA06",27931.000,"cc",28287.047,6.00,2828.705,1,6,0.100,16764.000,0.200,9951.000,0.300,1009.000,0.500,121.000,1.000,86.000,5.000,0
"07/09/06","17:11:39","AMMA06",27932.000,"cc",28305.410,6.00,2830.541,1,6,0.100,16711.000,0.200,10021.000,0.300,1019.000,0.500,115.000,1.000,66.000,5.000,0
"07/09/06","17:11:45","AMMA06",27777.000,"cc",28351.949,6.00,2835.195,1,6,0.100,16709.000,0.200,9939.000,0.300,966.000,0.500,100.000,1.000,63.000,5.000,0
"07/09/06","17:11:51","AMMA06",27777.000,"cc",28296.871,6.00,2829.687,1,6,0.100,16825.000,0.200,9776.000,0.300,972.000,0.500,124.000,1.000,80.000,5.000,0
"07/09/06","17:11:57","AMMA06",27824.000,"cc",28269.410,6.00,2826.941,1,6,0.100,16768.000,0.200,9861.000,0.300,989.000,0.500,142.000,1.000,64.000,5.000,0
"07/09/06","17:12:03","AMMA06",27884.000,"cc",28334.424,6.00,2833.443,1,6,0.100,16833.000,0.200,9804.000,0.300,1023.000,0.500,155.000,1.000,69.000,5.000,0
"07/09/06","17:12:09","AMMA06",27820.000,"cc",28333.881,6.00,2833.388,1,6,0.100,16762.000,0.200,9818.000,0.300,1039.000,0.500,134.000,1.000,67.000,5.000,0
"07/09/06","17:12:15","AMMA06",28121.000,"cc",28332.477,6.00,2833.248,1,6,0.100,16934.000,0.200,9888.000,0.300,1094.000,0.500,140.000,1.000,65.000,5.000,0
"07/09/06","17:12:21","AMMA06",28070.000,"cc",28280.522,6.00,2828.052,1,6,0.100,16898.000,0.200,9978.000,0.300,971.000,0.500,139.000,1.000,84.000,5.000,0
"07/09/06","17:12:27","AMMA06",28048.000,"cc",28337.809,6.00,2833.781,1,6,0.100,16906.000,0.200,9928.000,0.300,1001.000,0.500,130.000,1.000,83.000,5.000,0
"07/09/06","17:12:33","AMMA06",27873.000,"cc",28306.393,6.00,2830.639,1,6,0.100,16838.000,0.200,9798.000,0.300,1051.000,0.500,118.000,1.000,68.000,5.000,0
"07/09/06","17:12:39","AMMA06",27918.000,"cc",28303.650,6.00,2830.365,1,6,0.100,17044.000,0.200,9742.000,0.300,917.000,0.500,140.000,1.000,75.000,5.000,0
"07/09/06","17:12:45","AMMA06",27447.000,"cc",28298.529,6.00,2829.853,1,6,0.100,16614.000,0.200,9637.000,0.300,1008.000,0.500,128.000,1.000,60.000,5.000,0
"07/09/06","17:12:51","AMMA06",27844.000,"cc",28333.629,6.00,2833.363,1,6,0.100,16822.000,0.200,9848.000,0.300,982.000,0.500,128.000,1.000,64.000,5.000,0
"07/09/06","17:12:57","AMMA06",27952.000,"cc",28321.885,6.00,2832.189,1,6,0.100,17166.000,0.200,9650.000,0.300,949.000,0.500,118.000,1.000,69.000,5.000,0
"07/09/06","17:13:04","AMMA06",27737.000,"cc",28307.647,6.00,2830.765,1,6,0.100,16701.000,0.200,9855.000,0.300,967.000,0.500,149.000,1.000,65.000,5.000,0
"07/09/06","17:13:10","AMMA06",28111.000,"cc",28337.654,6.00,2833.766,1,6,0.100,17063.000,0.200,9873.000,0.300,984.000,0.500,124.000,1.000,67.000,5.000,0
"07/09/06","17:13:16","AMMA06",27915.000,"cc",28327.705,6.00,2832.771,1,6,0.100,16868.000,0.200,9831.000,0.300,1033.000,0.500,112.000,1.000,71.000,5.000,0
"07/09/06","17:13:22","AMMA06",27958.000,"cc",28347.604,6.00,2834.761,1,6,0.100,16832.000,0.200,9906.000,0.300,1008.000,0.500,128.000,1.000,84.000,5.000,0
"07/09/06","17:13:28","AMMA06",27703.000,"cc",28315.877,6.00,2831.588,1,6,0.100,16813.000,0.200,9740.000,0.300,958.000,0.500,126.000,1.000,66.000,5.000,0
"07/09/06","17:13:34","AMMA06",27977.000,"cc",28290.172,6.00,2829.017,1,6,0.100,16974.000,0.200,9799.000,0.300,993.000,0.500,137.000,1.000,74.000,5.000,0
"07/09/06","17:13:40","AMMA06",28344.000,"cc",28292.059,6.00,2829.206,1,6,0.100,17265.000,0.200,9893.000,0.300,1009.000,0.500,119.000,1.000,58.000,5.000,0
"07/09/06","17:13:46","AMMA06",27897.000,"cc",28298.873,6.00,2829.888,1,6,0.100,16839.000,0.200,9880.000,0.300,993.000,0.500,115.000,1.000,70.000,5.000,0
"07/09/06","17:13:52","AMMA06",28180.000,"cc",28295.951,6.00,2829.595,1,6,0.100,17046.000,0.200,9981.000,0.300,969.000,0.500,125.000,1.000,59.000,5.000,0
"07/09/06","17:13:58","AMMA06",27957.000,"cc",28333.299,6.00,2833.330,1,6,0.100,17177.000,0.200,9583.000,0.300,985.000,0.500,133.000,1.000,79.000,5.000,0
"07/09/06","17:14:04","AMMA06",27846.000,"cc",28329.283,6.00,2832.929,1,6,0.100,16785.000,0.200,9833.000,0.300,1036.000,0.500,112.000,1.000,80.000,5.000,0
"07/09/06","17:14:10","AMMA06",27718.000,"cc",28311.414,6.00,2831.142,1,6,0.100,16791.000,0.200,9793.000,0.300,957.000,0.500,118.000,1.000,59.000,5.000,0
"07/09/06","17:14:16","AMMA06",28054.000,"cc",28346.709,6.00,2834.671,1,6,0.100,17057.000,0.200,9852.000,0.300,965.000,0.500,120.000,1.000,60.000,5.000,0
"07/09/06","17:14:22","AMMA06",27847.000,"cc",28308.678,6.00,2830.868,1,6,0.100,17004.000,0.200,9758.000,0.300,909.000,0.500,108.000,1.000,68.000,5.000,0
"07/09/06","17:14:28","AMMA06",27964.000,"cc",28308.481,6.00,2830.848,1,6,0.100,17098.000,0.200,9660.000,0.300,1024.000,0.500,124.000,1.000,58.000,5.000,0
"07/09/06","17:14:34","AMMA06",27753.000,"cc",28307.947,6.00,2830.795,1,6,0.100,16906.000,0.200,9702.000,0.300,956.000,0.500,122.000,1.000,67.000,5.000,0